Regional Weather Roundup
Issued by NWS

Home | Current Version | Previous Version | Graphics & Text | Print | Product List | Glossary On
Versions: 1 2 3 4 5 6 7 8 9 10 11 12 13 14 15 16 17 18 19 20 21 22 23 24 25 26 27 28 29 30 31 32 33 34 35 36 37 38 39 40 41 42 43 44 45 46 47 48 49 50
000
ASUS45 KBOU 120510
RWRCO

WEATHER ROUNDUP FOR COLORADO
NATIONAL WEATHER SERVICE DENVER/BOULDER CO
1100 PM MDT FRI JUL 11 2014

NOTE: "FAIR" INDICATES FEW OR NO CLOUDS BELOW 12000 FEET WITH NO
SIGNIFICANT WEATHER AND/OR OBSTRUCTIONS TO VISIBILITY.

COZ001>005-013-030-031-120600-
...NORTHWEST COLORADO...

CITY           SKY/WX    TMP DP  RH WIND       PRES   REMARKS
CRAIG          LGT RAIN  56  56 100 SE10      30.26R
HAYDEN         CLOUDY    61  55  82 N9        30.29R
MEEKER         MOCLDY    69  52  54 CALM      30.25R
MOUNT WERNER   NOT AVBL
STEAMBOAT SPGS CLOUDY    62  51  66 W9        30.29R
WALDEN         CLOUDY    55  52  88 NW7       30.40R
$$

COZ006>008-011-120600-
...WEST CENTRAL VALLEYS...

CITY           SKY/WX    TMP DP  RH WIND       PRES   REMARKS
GRAND JUNCTION MOCLDY    76  53  44 SE13      30.08S
MONTROSE       MOCLDY    74  51  44 E5        30.22R
EAGLE          CLOUDY    64  59  82 S10       30.32R
RIFLE          CLOUDY    66  59  78 E14       30.20R
DELTA          NOT AVBL
NUCLA          MOCLDY    73  45  35 S3        30.22R
$$

COZ017>023-064>068-120600-
...SOUTHWEST COLORADO...

CITY           SKY/WX    TMP DP  RH WIND       PRES   REMARKS
DURANGO        RAIN      60  56  86 NE10      30.39R FOG
CORTEZ         CLOUDY    75  52  44 SE16G25   30.22R
PAGOSA SPRINGS CLOUDY    59  57  92 NW3       30.46R
TELLURIDE      MOCLDY    64  48  55 SE6       30.45R
WOLF CREEK PAS NOT AVBL
$$

COZ009-010-012-014-032>034-037-058>063-120600-
...CENTRAL COLORADO...

CITY           SKY/WX    TMP DP  RH WIND       PRES   REMARKS
ASPEN          CLOUDY    60  48  64 W5        30.36R
BUENA VISTA    PTCLDY    59  50  72 NW10      30.40R
COPPER MTN     PTCLDY    54  43  66 S7        30.69S
BERTHOUD PASS  CLOUDY    41  28  60 N5        30.75R HAZE
COTTONWOOD PAS PTCLDY    61  43  51 W8        30.53S
GUNNISON       MOCLDY    57  50  77 CALM      30.40S
KREMMLING      CLOUDY    55  52  88 E8        30.38F
LEADVILLE      PTCLDY    46  44  93 NE3       30.53R
SALIDA         PTCLDY   N/A N/A N/A NW7       30.43R
SUNLIGHT       TSTM      50  50 100 CALM      30.61S
WILKERSON PASS MOCLDY    50  41  71 S7        30.67R
$$

COZ069>075-120600-
...SAN LUIS VALLEY/SANGRE DE CRISTO MOUNTAINS...

CITY           SKY/WX    TMP DP  RH WIND       PRES   REMARKS
ALAMOSA        MOCLDY    58  49  72 SE9       30.35R
LA VETA PASS   MOCLDY    50  43  76 SW17G25   30.55R
SAGUACHE       NOT AVBL
$$

COZ035-036-038>040-120600-
...NORTHERN COLORADO FRONT RANGE...

CITY           SKY/WX    TMP DP  RH WIND       PRES   REMARKS
DENVER INTL AP CLOUDY    68  60  75 NE5       30.23R
DMNS CITY PARK   N/A     69  62  80 N3        30.24R
AURORA         CLOUDY    65  65  99 NE3       30.25R
FRONT RANGE AP NOT AVBL
ERIE MUNI ARPT PTCLDY    66  62  85 N3        30.23R
BOULDER MUN AP PTCLDY    66  61  82 CALM      30.25R
CENTENNIAL     CLOUDY    66  59  78 CALM      30.26R
BROOMFIELD     NOT AVBL
FORT COLLINS   MOCLDY    66  61  82 NE8       30.24R
LONGMONT       PTCLDY    69  62  80 NE7       30.25R
$$

COZ041-046-047-076>085-087-088-120600-
...PIKES PEAK/PALMER DIVIDE AND SOUTHERN FOOTHILLS...

CITY           SKY/WX    TMP DP  RH WIND       PRES   REMARKS
COLO. SPRINGS  MOCLDY    70  52  52 NW9       30.24R
A. F. ACADEMY  MOCLDY    64  52  63 N8        30.28R
ELLICOTT       MOCLDY    66  56  70 E18G28    30.25R
FALCON         MOCLDY    66  51  57 NW6       30.30R
FORT CARSON    CLOUDY    70  54  55 NW8       30.20R
LIMON          CLOUDY    67  59  75 NE14      30.21F
MONUMENT HILL  MOCLDY    61  46  59 NE7       30.31R
TRINIDAD       MOCLDY    71  52  50 S8        30.23R
$$

COZ042>045-048>051-090-091-120600-
...NORTHEAST COLORADO...

CITY           SKY/WX    TMP DP  RH WIND       PRES   REMARKS
GREELEY ARPT   NOT AVBL
AKRON          LGT RAIN  64  61  90 E7        30.15F
BURLINGTON     CLOUDY    68  62  81 N10       30.13F
WRAY           CLOUDY    68  64  88 NE8       30.06F
STERLING       DRIZZLE   70  70 100 CALM      30.15S
HOLYOKE        LGT RAIN  70  63  78 S6        30.10S
FORT MORGAN    CLOUDY    66  63  89 N5        30.19S
$$

COZ086-089-092>099-120600-
...SOUTHEAST COLORADO...

CITY           SKY/WX    TMP DP  RH WIND       PRES   REMARKS
PUEBLO         CLOUDY    73  61  65 NE10      30.11S
LA JUNTA       MOCLDY    78  58  49 N8        30.11R
LAMAR          MOCLDY    84  46  26 S18G26    30.03S
SPRINGFIELD      N/A     76  51  41 S15       30.15R
$$


USA.gov is the U.S. government's official web portal to all federal, state and local government web resources and services.